Weather History for Franklin, NC

Change the Weather History Date:

Monday, January 21, 2013

  Actual Average (KTOC) Record (KTOC)
Temperature  
Mean Temperature 36 °F -  
Max Temperature 50 °F 51 °F 55 °F (2014)
Min Temperature 21 °F 31 °F 28 °F (2014)
Degree Days  
Heating Degree Days 30    
Moisture  
Dew Point 19 °F    
Average Humidity 61    
Maximum Humidity 95    
Minimum Humidity 26    
Precipitation  
Precipitation 0.00 in - - ()
Sea Level Pressure  
Sea Level Pressure 30.08 in    
Wind  
Wind Speed 3 mph (North)    
Max Wind Speed 16 mph    
Max Gust Speed 25 mph    
Visibility 10 miles    
Events      
Averages and records for this station are not official NWS values.
T = Trace of Precipitation, MM = Missing Value Source: NWS Daily Summary

Daily Weather History Graph

Daily Weather History Graph

Search for Another Location

Airport:

Trip Planner

Search our weather history database for the weather conditions in past years. The results will help you decide how hot, cold, wet, or windy it might be!

Date:

Astronomy

Jan. 21, 2013 Rise Set
Actual Time 7:39 AM EST 5:51 PM EST
Civil Twilight 7:12 AM EST 6:18 PM EST
Nautical Twilight 6:41 AM EST 6:49 PM EST
Astronomical Twilight 6:11 AM EST 7:19 PM EST
Moon 1:31 PM EST (1/21) 3:06 AM EST (1/21)
Length of Visible Light 11h 06m
Length of Day
10h 11m
Waxing Gibbous, 75% of the Moon is Illuminated
Jan 21
Waxing Gibbous
Jan 26
Full
Feb 3
Last Quarter
Feb 10
New
Feb 17
First Quarter

Hourly Weather History & Observations

Time (EST) Temp. Windchill Dew Point Humidity Pressure Visibility Wind Dir Wind Speed Gust Speed Precip Events Conditions
12:15 AM 27.7 °F - 26.1 °F 94% 30.11 in 10.0 mi Calm Calm - N/A   Clear
12:35 AM 27.1 °F - 25.5 °F 94% 30.10 in 10.0 mi Calm Calm - N/A   Clear
12:55 AM 26.1 °F - 24.3 °F 93% 30.10 in 10.0 mi Calm Calm - N/A   Clear
1:15 AM 26.4 °F - 24.8 °F 94% 30.10 in 10.0 mi Calm Calm - N/A   Clear
1:35 AM 25.7 °F - 23.9 °F 93% 30.11 in 10.0 mi Calm Calm - N/A   Clear
1:55 AM 25.5 °F 21.3 °F 24.3 °F 95% 30.11 in 10.0 mi West 3.5 mph - N/A   Clear
2:15 AM 25.7 °F - 24.1 °F 94% 30.11 in 10.0 mi Calm Calm - N/A   Clear
2:35 AM 24.1 °F - 22.5 °F 94% 30.11 in 10.0 mi Calm Calm - N/A   Clear
2:55 AM 24.3 °F - 22.8 °F 94% 30.11 in 10.0 mi Calm Calm - N/A   Clear
3:15 AM 24.1 °F - 22.8 °F 95% 30.11 in 10.0 mi Calm Calm - N/A   Clear
3:35 AM 23.7 °F - 22.1 °F 94% 30.11 in 10.0 mi Calm Calm - N/A   Clear
3:55 AM 23.9 °F - 22.6 °F 95% 30.11 in 10.0 mi Calm Calm - N/A   Clear
4:15 AM 23.2 °F - 21.7 °F 94% 30.09 in 10.0 mi Calm Calm - N/A   Clear
4:35 AM 23.0 °F - 21.6 °F 94% 30.09 in 10.0 mi Calm Calm - N/A   Clear
4:55 AM 22.6 °F - 20.8 °F 93% 30.09 in 10.0 mi Calm Calm - N/A   Clear
5:15 AM 22.1 °F - 20.7 °F 94% 30.08 in 10.0 mi Calm Calm - N/A   Clear
5:35 AM 21.9 °F - 20.1 °F 93% 30.08 in 10.0 mi Calm Calm - N/A   Clear
5:55 AM 21.9 °F - 20.1 °F 93% 30.09 in 10.0 mi Calm Calm - N/A   Clear
6:15 AM 21.7 °F - 20.1 °F 93% 30.09 in 10.0 mi Calm Calm - N/A   Clear
6:35 AM 22.6 °F - 21.0 °F 93% 30.09 in 10.0 mi Calm Calm - N/A   Clear
6:55 AM 21.4 °F - 19.9 °F 94% 30.09 in 10.0 mi Calm Calm - N/A   Clear
7:15 AM 21.0 °F - 19.2 °F 93% 30.09 in 10.0 mi Calm Calm - N/A   Clear
7:35 AM 21.6 °F - 19.8 °F 93% 30.10 in 10.0 mi Calm Calm - N/A   Clear
7:55 AM 21.0 °F - 19.2 °F 93% 30.10 in 10.0 mi Calm Calm - N/A   Clear
8:15 AM 21.2 °F - 19.4 °F 93% 30.10 in 10.0 mi Calm Calm - N/A   Clear
8:35 AM 23.4 °F - 21.7 °F 94% 30.11 in 10.0 mi Calm Calm - N/A   Clear
8:55 AM 26.4 °F - 24.8 °F 94% 30.11 in 10.0 mi Calm Calm - N/A   Clear
9:35 AM 30.7 °F - 27.9 °F 89% 30.12 in 10.0 mi Calm Calm - N/A   Clear
9:55 AM 33.6 °F - 28.9 °F 83% 30.11 in 10.0 mi Calm Calm - N/A   Clear
10:15 AM 34.3 °F - 28.8 °F 80% 30.11 in 10.0 mi Calm Calm - N/A   Clear
10:35 AM 38.1 °F - 29.7 °F 72% 30.11 in 10.0 mi Calm Calm - N/A   Clear
10:55 AM 41.7 °F 37.3 °F 27.9 °F 58% 30.10 in 10.0 mi NNW 6.9 mph - N/A   Clear
11:15 AM 45.0 °F 40.1 °F 25.0 °F 46% 30.10 in 10.0 mi NW 9.2 mph - N/A   Clear
11:35 AM 46.8 °F - 23.7 °F 40% 30.09 in 10.0 mi North 5.8 mph - N/A   Clear
11:55 AM 47.5 °F - 22.1 °F 37% 30.07 in 10.0 mi NNW 3.5 mph - N/A   Clear
12:15 PM 48.4 °F - 21.4 °F 35% 30.05 in 10.0 mi NE 9.2 mph - N/A   Clear
12:35 PM 49.3 °F - 22.3 °F 35% 30.04 in 10.0 mi WNW 4.6 mph - N/A   Clear
12:55 PM 50.4 °F - 21.6 °F 32% 30.02 in 10.0 mi North 12.7 mph 20.7 mph N/A   Clear
1:15 PM 49.3 °F - 20.3 °F 32% 30.02 in 10.0 mi North 11.5 mph 18.4 mph N/A   Clear
1:35 PM 49.1 °F - 18.9 °F 30% 30.02 in 10.0 mi North 10.4 mph 17.3 mph N/A   Clear
1:55 PM 48.7 °F - 19.2 °F 31% 30.01 in 10.0 mi NNE 9.2 mph 18.4 mph N/A   Clear
2:15 PM 49.6 °F - 20.8 °F 32% 30.01 in 10.0 mi NNW 11.5 mph 18.4 mph N/A   Clear
2:35 PM 48.7 °F - 19.0 °F 31% 30.02 in 10.0 mi North 15.0 mph 20.7 mph N/A   Clear
2:55 PM 48.7 °F - 18.7 °F 30% 30.02 in 10.0 mi NNW 10.4 mph 19.6 mph N/A   Clear
3:15 PM 48.9 °F - 19.4 °F 31% 30.01 in 10.0 mi NNW 8.1 mph 16.1 mph N/A   Clear
3:35 PM 48.7 °F - 18.1 °F 30% 30.02 in 10.0 mi North 12.7 mph 19.6 mph N/A   Clear
3:55 PM 47.3 °F - 16.2 °F 29% 30.03 in 10.0 mi North 13.8 mph 23.0 mph N/A   Clear
4:15 PM 45.9 °F 39.4 °F 13.6 °F 27% 30.03 in 10.0 mi North 15.0 mph 25.3 mph N/A   Clear
4:35 PM 45.0 °F 37.9 °F 12.4 °F 27% 30.04 in 10.0 mi North 16.1 mph 21.9 mph N/A   Clear
4:55 PM 44.2 °F 38.0 °F 11.3 °F 26% 30.04 in 10.0 mi North 12.7 mph 20.7 mph N/A   Clear
5:15 PM 43.0 °F 36.0 °F 11.1 °F 27% 30.05 in 10.0 mi North 13.8 mph 20.7 mph N/A   Clear
5:35 PM 41.2 °F 35.0 °F 11.3 °F 30% 30.06 in 10.0 mi North 10.4 mph 18.4 mph N/A   Clear
6:15 PM 39.4 °F 34.5 °F 9.1 °F 29% 30.06 in 10.0 mi NW 6.9 mph - N/A   Clear
6:35 PM 38.8 °F 35.4 °F 8.8 °F 29% 30.06 in 10.0 mi North 4.6 mph - N/A   Clear
6:55 PM 38.3 °F - 9.1 °F 30% 30.07 in 10.0 mi Calm Calm - N/A   Clear
7:15 PM 37.6 °F 35.1 °F 9.3 °F 31% 30.08 in 10.0 mi NNE 3.5 mph - N/A   Clear
7:55 PM 36.9 °F 33.1 °F 9.3 °F 32% 30.06 in 10.0 mi North 4.6 mph - N/A   Clear
8:15 PM 36.3 °F 33.7 °F 8.8 °F 32% 30.06 in 10.0 mi NE 3.5 mph - N/A   Clear
8:35 PM 35.8 °F 33.0 °F 9.5 °F 34% 30.06 in 10.0 mi NNW 3.5 mph - N/A   Clear
8:55 PM 35.4 °F 29.0 °F 10.2 °F 35% 30.07 in 10.0 mi North 8.1 mph - N/A   Clear
9:15 PM 34.9 °F 27.7 °F 10.4 °F 36% 30.07 in 10.0 mi North 9.2 mph - N/A   Clear
9:35 PM 34.3 °F 26.5 °F 9.9 °F 36% 30.08 in 10.0 mi NNW 10.4 mph - N/A   Clear
9:55 PM 33.8 °F 26.4 °F 10.8 °F 38% 30.08 in 10.0 mi North 9.2 mph - N/A   Clear
10:35 PM 32.4 °F 26.0 °F 10.2 °F 40% 30.08 in 10.0 mi North 6.9 mph - N/A   Clear
10:55 PM 32.0 °F 23.6 °F 10.2 °F 40% 30.08 in 10.0 mi North 10.4 mph - N/A   Clear
11:15 PM 31.8 °F 24.6 °F 10.4 °F 41% 30.09 in 10.0 mi North 8.1 mph 18.4 mph N/A   Clear
11:35 PM 30.9 °F 21.7 °F 10.4 °F 42% 30.09 in 10.0 mi North 11.5 mph - N/A   Clear
11:55 PM 30.4 °F 21.5 °F 9.5 °F 42% 30.09 in 10.0 mi North 10.4 mph 17.3 mph N/A   Clear